Regional Weather Roundup
Issued by NWS

Home | Current Version | Previous Version | Graphics & Text | Print | Product List | Glossary On
Versions: 1 2 3 4 5 6 7 8 9 10 11 12 13 14 15 16 17 18 19 20 21 22 23 24 25 26 27
000
ASUS45 KCYS 280410
RWRWY

WYOMING REGIONAL WEATHER ROUNDUP
NATIONAL WEATHER SERVICE CHEYENNE WY
1000 PM MDT WED JUL 27 2016

NOTE:  "FAIR" INDICATES FEW OR NO CLOUDS BELOW 12,000 FEET
WITH NO SIGNIFICANT WEATHER AND/OR OBSTRUCTIONS TO VISIBILITY.

WYZ001-280500-
YELLOWSTONE NATIONAL PARK

CITY           SKY/WX    TMP DP  RH WIND       PRES   REMARKS
LK YELLOWSTONE   N/A     52  47  83 CALM      30.38R
W YELLOWSTONE  NOT AVBL

$$
WYZ002>013-054>058-071-098>099-280500-
NORTHERN WYOMING

CITY           SKY/WX    TMP DP  RH WIND       PRES   REMARKS
JACKSON        FAIR      68  28  22 E6        30.23S
CODY           FAIR      70  52  52 NW7       30.21R
GREYBULL       LGT RAIN  82  44  26 N6        30.06F
WORLAND        LGT RAIN  75  48  38 N22G30    30.06R
SHERIDAN       FAIR      76  50  40 N9        30.15R
BUFFALO        FAIR      74  51  44 CALM      30.21R
GILLETTE       FAIR      67  60  78 S8        30.16R
HULETT         FAIR      68  50  52 E8        30.20R
NEWCASTLE      FAIR      70  50  49 E8        30.18R

$$
WYZ014>020-022>026-101>103-280500-
CENTRAL WYOMING

CITY           SKY/WX    TMP DP  RH WIND       PRES   REMARKS
BIG PINEY      FAIR      60  28  29 N9        30.30R
PINEDALE       FAIR      61  32  33 CALM      30.31S
DUBOIS         FAIR      66  27  22 W3        30.30R
LANDER         FAIR      73  41  31 W8        30.17R
RIVERTON       FAIR      77  35  21 N12       30.16R
CASPER         FAIR      71  55  56 E21G29    30.16S
DOUGLAS          N/A    N/A N/A N/A MISG      30.21R

$$
WYZ021-027>030-104>119-280500-
SOUTHERN WYOMING

CITY           SKY/WX    TMP DP  RH WIND       PRES   REMARKS
EVANSTON       FAIR      76  24  14 CALM      30.31S
KEMMERER         N/A    N/A N/A N/A N7        30.33R
FORT BRIDGER   FAIR      73  21  14 CALM      30.33R
ROCK SPRINGS   FAIR      76  16  10 W12       30.26R
DIXON          FAIR      67  26  20 E7        30.26R
RAWLINS        FAIR      63  29  27 CALM      30.25R
SARATOGA       FAIR      64  32  29 S15       30.27S
LARAMIE        FAIR      65  49  56 SE10      30.32R
CHEYENNE       FAIR      65  58  78 E6        30.28R
TORRINGTON     RAIN      70  64  81 E18G31    30.15S
PINE BLUFFS    FAIR      63  55  77 CALM      30.24R

$$




USA.gov is the U.S. government's official web portal to all federal, state and local government web resources and services.